FW9607 Weather Reports


time (UTC)temp
C
wind
direction
speed
KPH
gust
KPH
rain 1hr
cm
rain 24hr
cm
rain mn
cm
humidity
%
barometer
mb
20260504033458 20 0 1.6 6.4 0.00 0.00 0.00 74 1016.9
20260504031958 20 120 1.6 6.4 0.00 0.00 0.00 73 1016.9
20260504031456 20 58 1.6 8.0 0.00 0.00 0.00 73 1017.0
20260504030456 21 0 1.6 4.8 0.00 0.00 0.00 72 1017.0
20260504025958 21 140 1.6 4.8 0.00 0.00 0.00 72 1017.0
20260504025457 21 94 1.6 6.4 0.00 0.00 0.00 71 1016.9
20260504024958 21 115 3.2 11.3 0.00 0.00 0.00 71 1016.8
20260504024454 21 113 3.2 11.3 0.00 0.00 0.00 71 1016.8
20260504023955 21 81 3.2 9.7 0.00 0.00 0.00 70 1016.7
20260504023454 21 90 3.2 8.0 0.00 0.00 0.00 70 1016.7
20260504022454 21 67 3.2 8.0 0.00 0.00 0.00 70 1016.6
20260504021955 21 124 3.2 6.4 0.00 0.00 0.00 70 1016.5
20260504021454 21 96 3.2 9.7 0.00 0.00 0.00 70 1016.4
20260504020956 21 117 3.2 9.7 0.00 0.00 0.00 69 1016.5
20260504020454 21 128 3.2 8.0 0.00 0.00 0.00 69 1016.5
20260504015956 21 0 3.2 8.0 0.00 0.00 0.00 69 1016.4
20260504015454 21 154 3.2 8.0 0.00 0.00 0.00 69 1016.5
20260504014956 22 88 3.2 9.7 0.00 0.00 0.00 68 1016.3
20260504014454 22 150 3.2 9.7 0.00 0.00 0.00 68 1016.3
20260504013956 22 113 3.2 8.0 0.00 0.00 0.00 68 1016.3
20260504013455 22 100 3.2 8.0 0.00 0.00 0.00 67 1016.3
20260504012954 22 129 3.2 8.0 0.00 0.00 0.00 67 1016.3
20260504012452 22 111 4.8 8.0 0.00 0.00 0.00 66 1016.2
20260504011954 22 104 3.2 8.0 0.00 0.00 0.00 66 1016.2
20260504010954 22 0 3.2 11.3 0.00 0.00 0.00 66 1016.0
20260504010449 22 106 4.8 11.3 0.00 0.00 0.00 65 1015.9
20260504005951 22 128 4.8 11.3 0.00 0.00 0.00 65 1015.8
20260504005449 23 142 6.4 12.9 0.00 0.00 0.00 64 1015.9
20260504004951 23 148 4.8 12.9 0.00 0.00 0.00 63 1015.8
20260504004449 23 132 3.2 9.7 0.00 0.00 0.00 64 1015.9
20260504003952 23 132 4.8 14.5 0.00 0.00 0.00 63 1016.0
20260504003450 23 150 4.8 14.5 0.00 0.00 0.00 63 1015.9
20260504002952 23 118 4.8 14.5 0.00 0.00 0.00 63 1016.0
20260504002450 23 134 4.8 12.9 0.00 0.00 0.00 62 1016.1
20260504001951 23 95 4.8 12.9 0.00 0.00 0.00 62 1016.2
20260504001451 23 124 4.8 16.1 0.00 0.00 0.00 61 1016.4
20260504000957 24 123 4.8 16.1 0.00 0.00 0.00 61 1016.4
20260503235957 24 92 4.8 16.1 0.00 0.00 0.00 61 1016.3
20260503235447 24 129 4.8 16.1 0.00 0.00 0.00 60 1016.2
20260503234447 24 213 6.4 14.5 0.00 0.00 0.00 60 1016.0
20260503233957 24 111 6.4 17.7 0.00 0.00 0.00 61 1016.0
20260503233447 24 95 6.4 17.7 0.00 0.00 0.00 61 1016.0
20260503232957 24 97 8.0 17.7 0.00 0.00 0.00 60 1016.0
20260503232448 25 116 8.0 19.3 0.00 0.00 0.00 60 1016.1
20260503232000 25 118 8.0 19.3 0.00 0.00 0.00 60 1016.0
20260503231444 25 134 6.4 16.1 0.00 0.00 0.00 59 1016.1
20260503230949 25 123 6.4 17.7 0.00 0.00 0.00 60 1016.2
20260503230444 25 173 6.4 20.9 0.00 0.00 0.00 59 1016.1
20260503225443 25 127 8.0 17.7 0.00 0.00 0.00 58 1016.2
20260503224949 25 122 8.0 20.9 0.00 0.00 0.00 58 1016.2
20260503223949 25 107 6.4 14.5 0.00 0.00 0.00 57 1016.2
20260503223444 25 162 4.8 11.3 0.00 0.00 0.00 57 1016.3
20260503222946 25 78 4.8 4.8 0.00 0.00 0.00 57 1016.3
20260503222509 25 98 6.4 16.1 0.00 0.00 0.00 56 1016.4
20260503222009 26 123 4.8 16.1 0.00 0.00 0.00 56 1016.4
20260503221509 26 96 4.8 14.5 0.00 0.00 0.00 55 1016.4
20260503221009 25 106 4.8 14.5 0.00 0.00 0.00 55 1016.4
20260503220509 26 112 4.8 14.5 0.00 0.00 0.00 54 1016.6
20260503220007 25 121 4.8 12.9 0.00 0.00 0.00 55 1016.6
20260503215506 25 157 6.4 12.9 0.00 0.00 0.00 56 1016.7
20260503215004 25 159 6.4 12.9 0.00 0.00 0.00 55 1016.8
20260503214504 26 110 6.4 16.1 0.00 0.00 0.00 54 1017.0
20260503214004 26 95 6.4 16.1 0.00 0.00 0.00 54 1017.1
20260503213504 26 103 4.8 12.9 0.00 0.00 0.00 53 1017.1
20260503212503 26 178 4.8 14.5 0.00 0.00 0.00 53 1017.4
20260503212003 26 179 6.4 14.5 0.00 0.00 0.00 53 1017.3
20260503211504 26 134 4.8 14.5 0.00 0.00 0.00 53 1017.5
20260503211004 25 87 4.8 14.5 0.00 0.00 0.00 54 1017.5
20260503210005 26 85 8.0 17.7 0.00 0.00 0.00 55 1017.6
20260503205505 26 105 6.4 17.7 0.00 0.00 0.00 53 1017.7
20260503205004 26 43 4.8 12.9 0.00 0.00 0.00 53 1017.7
20260503204504 26 0 4.8 14.5 0.00 0.00 0.00 53 1017.9
20260503203503 26 132 4.8 24.1 0.00 0.00 0.00 54 1018.1
20260503202000 26 116 6.4 17.7 0.00 0.00 0.00 53 1018.2
20260503201458 26 135 4.8 14.5 0.00 0.00 0.00 53 1018.3
20260503200000 26 68 4.8 17.7 0.00 0.00 0.00 54 1018.5
20260503195500 26 178 4.8 16.1 0.00 0.00 0.00 53 1018.5
20260503194959 26 138 6.4 16.1 0.00 0.00 0.00 53 1018.7
20260503194459 26 168 6.4 14.5 0.00 0.00 0.00 52 1018.8
20260503193959 26 104 6.4 14.5 0.00 0.00 0.00 52 1018.8
20260503193459 26 101 6.4 14.5 0.00 0.00 0.00 53 1018.9
20260503192959 26 160 6.4 14.5 0.00 0.00 0.00 54 1018.9
20260503192500 26 114 4.8 16.1 0.00 0.00 0.00 52 1018.9
20260503191957 26 139 3.2 16.1 0.00 0.00 0.00 52 1019.0
20260503191457 25 146 4.8 12.9 0.00 0.00 0.00 54 1019.1
20260503191000 25 149 6.4 14.5 0.00 0.00 0.00 54 1019.1
20260503190454 25 151 6.4 14.5 0.00 0.00 0.00 53 1019.2
20260503185954 26 107 6.4 14.5 0.00 0.00 0.00 52 1019.3
20260503185454 26 123 4.8 14.5 0.00 0.00 0.00 51 1019.4
20260503184454 26 78 6.4 14.5 0.00 0.00 0.00 52 1019.5
20260503183955 26 126 4.8 12.9 0.00 0.00 0.00 52 1019.5
20260503182954 25 92 4.8 12.9 0.00 0.00 0.00 54 1019.8
20260503182454 25 87 4.8 9.7 0.00 0.00 0.00 51 1019.9
20260503181955 26 66 4.8 11.3 0.00 0.00 0.00 52 1020.0
20260503181452 26 131 3.2 11.3 0.00 0.00 0.00 51 1020.0
20260503180954 26 93 3.2 9.7 0.00 0.00 0.00 51 1020.1
20260503180449 26 41 4.8 11.3 0.00 0.00 0.00 51 1020.2
20260503175946 26 153 4.8 11.3 0.00 0.00 0.00 51 1020.3
20260503175442 26 79 3.2 8.0 0.00 0.00 0.00 51 1020.4
20260503174943 26 104 3.2 9.7 0.00 0.00 0.00 50 1020.4
20260503174443 26 131 4.8 11.3 0.00 0.00 0.00 50 1020.5
20260503173943 25 141 6.4 14.5 0.00 0.00 0.00 51 1020.6
20260503173443 25 152 6.4 14.5 0.00 0.00 0.00 52 1020.7
20260503172944 25 98 4.8 14.5 0.00 0.00 0.00 52 1020.8
20260503172444 25 67 4.8 14.5 0.00 0.00 0.00 52 1020.8
20260503171943 25 142 4.8 14.5 0.00 0.00 0.00 53 1020.9
20260503171443 25 116 4.8 11.3 0.00 0.00 0.00 53 1020.9
20260503170943 25 161 3.2 9.7 0.00 0.00 0.00 53 1020.9
20260503170443 25 67 3.2 12.9 0.00 0.00 0.00 54 1021.0
20260503131413 15 302 1.6 3.2 0.00 0.00 0.00 90 1020.8
20260503130912 15 0 1.6 3.2 0.00 0.00 0.00 90 1020.7
20260503130412 15 180 1.6 4.8 0.00 0.00 0.00 90 1020.7
20260503110805 13 8 0.0 3.2 0.00 0.00 0.00 93 1019.2
20260503110318 13 0 0.0 3.2 0.00 0.00 0.00 93 1019.2
20260503100259 13 277 0.0 4.8 0.00 0.00 0.00 94 1019.9
20260503090258 14 0 0.0 1.6 0.00 0.00 0.00 91 1019.5
20260503081256 14 273 1.6 4.8 0.00 0.00 0.00 93 1019.8
20260503080755 14 0 0.0 3.2 0.00 0.00 0.00 92 1019.8
20260503072750 14 0 0.0 3.2 0.00 0.00 0.00 92 1020.2
20260503071747 14 0 0.0 1.6 0.00 0.00 0.00 91 1020.1
20260503071247 15 0 0.0 1.6 0.00 0.00 0.00 91 1020.1
20260503070747 15 0 0.0 3.2 0.00 0.00 0.00 91 1020.2
20260503070248 15 0 0.0 3.2 0.00 0.00 0.00 91 1020.2
20260503060247 15 0 0.0 3.2 0.00 0.00 0.00 89 1020.0
20260503054747 15 275 0.0 1.6 0.00 0.00 0.00 89 1020.0
20260503054247 15 0 0.0 3.2 0.00 0.00 0.00 88 1020.1
20260503053747 15 0 0.0 3.2 0.00 0.00 0.00 88 1020.2
20260503052747 15 264 0.0 3.2 0.00 0.00 0.00 88 1020.2
20260503051747 16 0 0.0 3.2 0.00 0.00 0.00 87 1020.1
20260503051246 16 0 0.0 3.2 0.00 0.00 0.00 87 1020.1
20260503050746 16 0 0.0 3.2 0.00 0.00 0.00 86 1020.0
20260503050243 16 314 0.0 3.2 0.00 0.00 0.00 86 1020.0
20260503045743 16 294 0.0 3.2 0.00 0.00 0.00 86 1020.0
20260503045240 16 330 0.0 3.2 0.00 0.00 0.00 86 1020.0
20260503044741 16 333 0.0 3.2 0.00 0.00 0.00 86 1020.0
20260503044241 16 352 0.0 3.2 0.00 0.00 0.00 86 1020.1
20260503043740 16 0 1.6 4.8 0.00 0.00 0.00 86 1020.0
20260503043240 16 304 1.6 4.8 0.00 0.00 0.00 86 1020.0
20260503042741 16 295 1.6 3.2 0.00 0.00 0.00 85 1019.9
20260503042241 16 13 1.6 3.2 0.00 0.00 0.00 85 1019.9
20260503041241 17 267 0.0 3.2 0.00 0.00 0.00 84 1019.8
20260503040740 17 0 0.0 1.6 0.00 0.00 0.00 83 1019.7
20260503040240 17 0 0.0 3.2 0.00 0.00 0.00 83 1019.6
20260503035741 17 0 0.0 3.2 0.00 0.00 0.00 82 1019.7
20260503035241 17 0 0.0 4.8 0.00 0.00 0.00 82 1019.7
20260503034739 17 232 0.0 4.8 0.00 0.00 0.00 82 1019.7
20260503034238 17 277 0.0 4.8 0.00 0.00 0.00 82 1019.6